Regional Weather Roundup
Issued by NWS Newport/Morehead, NC

Current Version | Previous Version | Graphics & Text | Print | Product List | Glossary Off
Versions: 1 2 3 4 5 6 7 8 9 10 11 12 13 14 15 16 17 18 19 20 21 22 23 24 25 26 27 28 29 30 31 32 33 34 35 36 37 38 39 40 41 42 43 44 45 46 47 48 49 50

000
ASUS42 KMHX 030413
RWRMHX
WEATHER ROUNDUP FOR EASTERN NORTH CAROLINA
NATIONAL WEATHER SERVICE NEWPORT/MOREHEAD CITY NC
1200 AM EDT MON AUG 03 2015

NOTE: "FAIR" INDICATES FEW OR NO CLOUDS BELOW 12,000 FEET
WITH NO SIGNIFICANT WEATHER AND/OR OBSTRUCTIONS TO VISIBILITY

NCZ015>017-031-032-045>047-102-103-030500-
NORTH COAST

CITY           SKY/WX    TMP DP  RH WIND       PRES   REMARKS
EDENTON        PTCLDY    73  70  89 CALM      29.94S
ELIZABETH CITY CLOUDY    76  71  85 NW6       29.94S
KITTY HAWK     MOCLDY    80  71  75 SW6       29.93F
MANTEO         PTCLDY    79  73  80 SW8       29.95S

$$

NCZ045>047-081-094-103-104-030500-
CENTRAL COAST

CITY           SKY/WX    TMP DP  RH WIND       PRES   REMARKS
FRISCO         CLEAR     79  73  82 W10       29.96R
SWANQUARTER      N/A     79 N/A N/A W8        29.94R

$$

NCZ095-097-098-100-101-030500-
SOUTHERN COAST

CITY           SKY/WX    TMP DP  RH WIND       PRES   REMARKS
BEAUFORT       PTCLDY    79  73  82 SW14      29.95F
CEDAR ISLAND     N/A     77 N/A N/A S9        30.00S
JACKSONVILLE   CLEAR     75  72  90 S3        29.95S
PINEY ISLAND   CLEAR    N/A N/A N/A S7        29.95S
WILMINGTON     MOCLDY    77  74  90 S5        29.95R


$$

NCZ011>013-027>030-043-044-078>080-089-090>093-098-030500-
COASTAL PLAIN

CITY           SKY/WX    TMP DP  RH WIND       PRES   REMARKS
AHOSKIE        PTCLDY    69  66  90 CALM      29.95S
CLINTON        PTCLDY    74  73  96 CALM      29.95S
ELIZABETHTOWN  MOCLDY    76  73  91 SE3       29.94S
GOLDSBORO      PTCLDY    77  73  88 CALM      29.93S
GREENVILLE     CLEAR     77  73  88 SW5       29.97S
HAVELOCK       CLEAR     75  72  90 S3        29.96S
KENANSVILLE    PTCLDY    72  71  94 CALM      29.96R
KINSTON        CLEAR     75  72  91 CALM      29.96S
NEW BERN       CLEAR     75  72  90 CALM      29.97R
RICHLANDS      CLEAR     72  66  83 CALM      29.96S
ROCKY MOUNT    CLEAR     79  70  74 S8        29.95S
WASHINGTON     CLEAR     77  73  86 SW5       29.95S
WHITEVILLE     MOCLDY    75  73  92 CALM      29.93F

$$

AMZ130-135-150-152-154-156-158-170-250-252-270-ANZ085-086-088-633-658-670-030500-
MARINE OBSERVATIONS

STATION/POSITION TIME  TEMP    WIND        PRES    WAVE   SWELL
                       AIR SEA DIR/SP/G            HT/PER HT/PER
                 (UTC) (F)     (DEG/KT/KT) (MB)    (FT/S) (FT/S)
CHESAPEAKE LIGHT 0400   80      CALM  /  1 1013.7
64 E VA BEACH    0350   82 81  210/ 12/ 14 1013.1    3/11   2/11
DUCK             0300   81 72  210/  7/  9 1012.8
2 E DUCK         0311      79                N/A     2/13   2/13
OREGON INLET     0300   82 86  230/ 17/ 20 1013.8
13E OREGON INLT  0400      81                N/A     3/ 4   2/11
HATTERAS CG      0300   79 83  230/  7/ 14 1013.9
DIAMOND BUOY     0350   82 85  210/ 14/ 16 1014.8    4/12   2/12
CAPE LOOKOUT     0400   80     210/  9/ 12 1014.1
BEAUFORT LAB     0300   80 83  210/  9/ 13 1013.6
30 SE NEW RVR IN NOT AVBL
27 SE WRIGHTSVLE 0300   77 82  220/ 23/ 25   N/A
5 SE WRIGHTSVLE  0308   82 83  200/ 16/ 21 1013.7
225 S CAPE HAT   0350   82 81  210/ 12/ 16 1016.8    4/ 7   3/ 7
41 SE CHARLESTON 0350   80 83  160/ 23/ 29 1012.8    5/ 6   2/11

$$



USA.gov is the U.S. government's official web portal to all federal, state and local government web resources and services.